Time,TemperatureF,DewpointF,PressureIn,WindDirection,WindDirectionDegrees,WindSpeedMPH,WindSpeedGustMPH,Humidity,HourlyPrecipIn,Conditions,Clouds,dailyrainin,SolarRadiationWatts/m^2,SoftwareType,DateUTC
2013-03-04 00:00:00,23.2,12.1,29.80,West,280,9.0,15.0,62,0.00,-SN,,0.00,0.0,WeatherDisplay:10.37,2013-03-04 05:00:00,
2013-03-04 00:01:00,23.2,13.1,29.80,West,270,15.2,15.2,65,0.00,-SN,,0.00,0.0,WeatherDisplay:10.37,2013-03-04 05:01:00,
2013-03-04 00:06:00,23.2,12.8,29.80,West,270,13.8,13.8,64,0.00,-SN,,0.00,0.0,WeatherDisplay:10.37,2013-03-04 05:06:00,
2013-03-04 00:11:00,23.2,12.1,29.83,WNW,292,13.8,13.8,62,0.00,-SN,,0.00,0.0,WeatherDisplay:10.37,2013-03-04 05:11:00,
2013-03-04 00:16:00,23.2,12.1,29.83,WNW,292,12.8,12.8,62,0.00,-SN,,0.00,0.0,WeatherDisplay:10.37,2013-03-04 05:16:00,
2013-03-04 00:21:00,23.0,13.0,29.83,WNW,292,12.7,12.7,65,0.00,-SN,,0.00,0.0,WeatherDisplay:10.37,2013-03-04 05:21:00,
2013-03-04 00:26:00,23.2,12.1,29.83,WNW,292,12.7,12.7,62,0.00,-SN,,0.00,0.0,WeatherDisplay:10.37,2013-03-04 05:26:00,
2013-03-04 00:31:00,23.2,11.0,29.83,West,270,19.6,19.6,59,0.00,-SN,,0.00,0.0,WeatherDisplay:10.37,2013-03-04 05:31:00,
2013-03-04 00:36:00,23.2,11.0,29.83,WNW,292,12.5,12.5,59,0.00,-SN,,0.00,0.0,WeatherDisplay:10.37,2013-03-04 05:36:00,
2013-03-04 00:41:00,23.2,11.0,29.83,West,270,15.4,15.4,59,0.00,-SN,,0.00,0.0,WeatherDisplay:10.37,2013-03-04 05:41:00,
2013-03-04 00:46:00,23.2,11.0,29.83,West,270,13.0,13.0,59,0.00,-SN,,0.00,0.0,WeatherDisplay:10.37,2013-03-04 05:46:00,
2013-03-04 00:51:00,23.2,11.0,29.83,West,270,15.4,15.4,59,0.00,-SN,,0.00,0.0,WeatherDisplay:10.37,2013-03-04 05:51:00,
2013-03-04 00:56:00,23.2,11.0,29.83,WNW,292,11.5,11.5,59,0.00,-SN,,0.00,0.0,WeatherDisplay:10.37,2013-03-04 05:56:00,
2013-03-04 01:01:00,23.2,11.0,29.83,West,270,12.7,12.7,59,0.00,-SN,,0.00,0.0,WeatherDisplay:10.37,2013-03-04 06:01:00,
2013-03-04 01:06:00,23.2,11.0,29.83,WNW,292,11.5,11.5,59,0.00,-SN,,0.00,0.0,WeatherDisplay:10.37,2013-03-04 06:06:00,
2013-03-04 01:11:00,23.2,11.0,29.83,West,270,10.4,10.4,59,0.00,-SN,,0.00,0.0,WeatherDisplay:10.37,2013-03-04 06:11:00,
2013-03-04 01:16:00,23.2,11.0,29.83,West,270,16.6,16.6,59,0.00,-SN,,0.00,0.0,WeatherDisplay:10.37,2013-03-04 06:16:00,
2013-03-04 01:21:00,23.2,11.0,29.83,West,270,12.7,12.7,59,0.00,-SN,,0.00,0.0,WeatherDisplay:10.37,2013-03-04 06:21:00,
2013-03-04 01:26:00,23.2,11.0,29.83,WNW,292,13.8,13.8,59,0.00,-SN,,0.00,0.0,WeatherDisplay:10.37,2013-03-04 06:26:00,
2013-03-04 01:31:00,23.2,11.0,29.83,WNW,292,12.7,12.7,59,0.00,-SN,,0.00,0.0,WeatherDisplay:10.37,2013-03-04 06:31:00,
2013-03-04 01:36:00,23.2,11.0,29.83,West,270,12.8,12.8,59,0.00,-SN,,0.00,0.0,WeatherDisplay:10.37,2013-03-04 06:36:00,
2013-03-04 01:41:00,23.2,11.0,29.83,West,270,10.4,10.4,59,0.00,-SN,,0.00,0.0,WeatherDisplay:10.37,2013-03-04 06:41:00,
2013-03-04 01:46:00,23.2,11.0,29.83,West,270,10.9,10.9,59,0.00,-SN,,0.00,0.0,WeatherDisplay:10.37,2013-03-04 06:46:00,
2013-03-04 01:51:00,23.2,11.0,29.83,West,270,13.8,13.8,59,0.00,-SN,,0.00,0.0,WeatherDisplay:10.37,2013-03-04 06:51:00,
2013-03-04 01:56:00,23.2,11.0,29.83,WNW,292,13.0,13.0,59,0.00,-SN,,0.00,0.0,WeatherDisplay:10.37,2013-03-04 06:56:00,
2013-03-04 02:01:00,23.2,11.0,29.83,West,270,11.5,11.5,59,0.00,-SN,,0.00,0.0,WeatherDisplay:10.37,2013-03-04 07:01:00,
2013-03-04 02:06:00,23.4,11.1,29.83,West,270,13.8,13.8,59,0.00,-SN,,0.00,0.0,WeatherDisplay:10.37,2013-03-04 07:06:00,
2013-03-04 02:11:00,23.4,11.1,29.83,WNW,292,12.3,12.3,59,0.00,-SN,,0.00,0.0,WeatherDisplay:10.37,2013-03-04 07:11:00,
2013-03-04 02:16:00,23.4,11.1,29.83,WSW,248,13.8,13.8,59,0.00,-SN,,0.00,0.0,WeatherDisplay:10.37,2013-03-04 07:16:00,
2013-03-04 02:21:00,23.4,11.1,29.83,WNW,292,12.7,12.7,59,0.00,-SN,,0.00,0.0,WeatherDisplay:10.37,2013-03-04 07:21:00,
2013-03-04 02:26:00,23.4,11.1,29.83,West,270,16.1,16.1,59,0.00,-SN,,0.00,0.0,WeatherDisplay:10.37,2013-03-04 07:26:00,
2013-03-04 02:31:00,23.4,11.1,29.83,West,270,16.1,16.1,59,0.00,-SN,,0.00,0.0,WeatherDisplay:10.37,2013-03-04 07:31:00,
2013-03-04 02:36:00,23.4,11.1,29.83,WSW,248,14.7,14.7,59,0.00,-SN,,0.00,0.0,WeatherDisplay:10.37,2013-03-04 07:36:00,
2013-03-04 02:41:00,23.4,11.1,29.83,WSW,248,12.7,12.7,59,0.00,-SN,,0.00,0.0,WeatherDisplay:10.37,2013-03-04 07:41:00,
2013-03-04 02:46:00,23.4,11.1,29.83,West,270,18.4,18.4,59,0.00,-SN,,0.00,0.0,WeatherDisplay:10.37,2013-03-04 07:46:00,
2013-03-04 02:51:00,23.4,11.1,29.83,WNW,292,17.3,17.3,59,0.00,-SN,,0.00,0.0,WeatherDisplay:10.37,2013-03-04 07:51:00,
2013-03-04 02:56:00,23.4,11.1,29.83,WNW,292,15.0,15.0,59,0.00,-SN,,0.00,0.0,WeatherDisplay:10.37,2013-03-04 07:56:00,
2013-03-04 03:01:00,23.4,10.4,29.83,West,270,19.6,19.6,57,0.00,-SN,,0.00,0.0,WeatherDisplay:10.37,2013-03-04 08:01:00,
2013-03-04 03:06:00,23.4,11.1,29.83,WNW,292,13.8,13.8,59,0.00,-SN,,0.00,0.0,WeatherDisplay:10.37,2013-03-04 08:06:00,
2013-03-04 03:11:00,23.2,11.0,29.83,West,270,13.2,13.2,59,0.00,-SN,,0.00,0.0,WeatherDisplay:10.37,2013-03-04 08:11:00,
2013-03-04 03:16:00,23.2,10.2,29.83,WNW,292,15.4,15.4,57,0.00,-SN,,0.00,0.0,WeatherDisplay:10.37,2013-03-04 08:16:00,
2013-03-04 03:21:00,23.2,10.2,29.83,WSW,248,12.3,12.3,57,0.00,-SN,,0.00,0.0,WeatherDisplay:10.37,2013-03-04 08:21:00,
2013-03-04 03:26:00,23.2,10.2,29.83,WNW,292,20.7,20.7,57,0.00,-SN,,0.00,0.0,WeatherDisplay:10.37,2013-03-04 08:26:00,
2013-03-04 03:31:00,23.2,10.2,29.83,West,270,12.7,12.7,57,0.00,-SN,,0.00,0.0,WeatherDisplay:10.37,2013-03-04 08:31:00,
2013-03-04 03:36:00,23.2,10.2,29.83,WNW,292,12.7,12.7,57,0.00,-SN,,0.00,0.0,WeatherDisplay:10.37,2013-03-04 08:36:00,
2013-03-04 03:41:00,23.0,12.3,29.83,West,270,13.8,13.8,63,0.00,-SN,,0.00,0.0,WeatherDisplay:10.37,2013-03-04 08:41:00,
2013-03-04 03:46:00,23.2,10.2,29.83,West,270,15.0,15.0,57,0.00,-SN,,0.00,0.0,WeatherDisplay:10.37,2013-03-04 08:46:00,
2013-03-04 03:51:00,23.2,10.2,29.83,WNW,292,13.0,13.0,57,0.00,-SN,,0.00,0.0,WeatherDisplay:10.37,2013-03-04 08:51:00,
2013-03-04 03:56:00,23.2,10.2,29.85,West,270,17.3,17.3,57,0.00,-SN,,0.00,0.0,WeatherDisplay:10.37,2013-03-04 08:56:00,
2013-03-04 04:01:00,23.2,10.2,29.85,West,270,23.0,23.0,57,0.00,-SN,,0.00,0.0,WeatherDisplay:10.37,2013-03-04 09:01:00,
2013-03-04 04:06:00,23.2,10.2,29.85,WNW,292,19.7,19.7,57,0.00,-SN,,0.00,0.0,WeatherDisplay:10.37,2013-03-04 09:06:00,
2013-03-04 04:11:00,23.2,10.2,29.85,WSW,248,16.1,16.1,57,0.00,-SN,,0.00,0.0,WeatherDisplay:10.37,2013-03-04 09:11:00,
2013-03-04 04:16:00,23.0,10.0,29.85,West,270,17.3,17.3,57,0.00,-SN,,0.00,0.0,WeatherDisplay:10.37,2013-03-04 09:16:00,
2013-03-04 04:21:00,23.0,10.0,29.85,West,270,15.4,15.4,57,0.00,-SN,,0.00,0.0,WeatherDisplay:10.37,2013-03-04 09:21:00,
2013-03-04 04:26:00,23.0,10.0,29.85,West,270,19.6,19.6,57,0.00,-SN,,0.00,0.0,WeatherDisplay:10.37,2013-03-04 09:26:00,
2013-03-04 04:31:00,23.0,11.2,29.85,WNW,292,15.0,15.0,60,0.00,-SN,,0.00,0.0,WeatherDisplay:10.37,2013-03-04 09:31:00,
2013-03-04 04:36:00,22.8,11.7,29.85,WNW,292,11.5,11.5,62,0.00,-SN,,0.00,0.0,WeatherDisplay:10.37,2013-03-04 09:36:00,
2013-03-04 04:41:00,22.6,11.9,29.85,WNW,292,11.5,11.5,63,0.00,-SN,,0.00,0.0,WeatherDisplay:10.37,2013-03-04 09:41:00,
2013-03-04 04:46:00,22.5,11.8,29.85,WNW,292,13.8,13.8,63,0.00,-SN,,0.00,0.0,WeatherDisplay:10.37,2013-03-04 09:46:00,
2013-03-04 04:51:00,22.5,12.8,29.85,West,270,10.9,10.9,66,0.00,-SN,,0.00,0.0,WeatherDisplay:10.37,2013-03-04 09:51:00,
2013-03-04 04:56:00,22.1,14.8,29.85,WNW,292,12.7,12.7,73,0.00,-SN,,0.00,0.0,WeatherDisplay:10.37,2013-03-04 09:56:00,
2013-03-04 05:01:00,21.9,14.9,29.85,WNW,292,8.1,8.1,74,0.00,-SN,,0.00,0.0,WeatherDisplay:10.37,2013-03-04 10:01:00,
2013-03-04 05:06:00,21.9,15.2,29.85,West,270,10.2,10.2,75,0.00,-SN,,0.00,0.0,WeatherDisplay:10.37,2013-03-04 10:06:00,
2013-03-04 05:11:00,21.9,15.2,29.85,West,270,11.5,11.5,75,0.00,-SN,,0.00,0.0,WeatherDisplay:10.37,2013-03-04 10:11:00,
2013-03-04 05:16:00,21.9,14.9,29.85,West,270,12.7,12.7,74,0.00,-SN,,0.00,0.0,WeatherDisplay:10.37,2013-03-04 10:16:00,
2013-03-04 05:21:00,21.9,14.6,29.85,WNW,292,16.1,16.1,73,0.00,-SN,,0.00,0.0,WeatherDisplay:10.37,2013-03-04 10:21:00,
2013-03-04 05:26:00,22.1,14.1,29.88,West,270,18.4,18.4,71,0.00,-SN,,0.00,0.0,WeatherDisplay:10.37,2013-03-04 10:26:00,
2013-03-04 05:32:00,22.1,13.1,29.88,West,270,8.7,8.7,68,0.00,-SN,,0.00,0.0,WeatherDisplay:10.37,2013-03-04 10:32:00,
2013-03-04 05:37:00,22.3,12.3,29.88,WNW,292,12.7,12.7,65,0.00,-SN,,0.00,0.0,WeatherDisplay:10.37,2013-03-04 10:37:00,
2013-03-04 05:42:00,22.5,11.8,29.88,WNW,292,17.3,17.3,63,0.00,-SN,,0.00,0.0,WeatherDisplay:10.37,2013-03-04 10:42:00,
2013-03-04 05:47:00,22.5,11.4,29.88,WNW,292,17.3,17.3,62,0.00,-SN,,0.00,0.0,WeatherDisplay:10.37,2013-03-04 10:47:00,
2013-03-04 05:52:00,22.6,10.8,29.88,West,270,12.7,12.7,60,0.00,-SN,,0.00,0.0,WeatherDisplay:10.37,2013-03-04 10:52:00,
2013-03-04 05:57:00,22.6,10.8,29.88,WNW,292,16.1,16.1,60,0.00,-SN,,0.00,0.0,WeatherDisplay:10.37,2013-03-04 10:57:00,
2013-03-04 06:02:00,22.6,9.7,29.88,West,270,11.5,11.5,57,0.00,-SN,,0.00,0.0,WeatherDisplay:10.37,2013-03-04 11:02:00,
2013-03-04 06:07:00,22.8,9.8,29.88,West,270,10.9,10.9,57,0.00,-SN,,0.00,0.0,WeatherDisplay:10.37,2013-03-04 11:07:00,
2013-03-04 06:12:00,22.6,9.7,29.88,WNW,292,11.5,11.5,57,0.00,-SN,,0.00,0.0,WeatherDisplay:10.37,2013-03-04 11:12:00,
2013-03-04 06:17:00,22.6,11.6,29.88,WNW,292,13.8,13.8,62,0.00,-SN,,0.00,0.0,WeatherDisplay:10.37,2013-03-04 11:17:00,
2013-03-04 06:22:00,22.3,11.6,29.88,WNW,292,10.4,10.4,63,0.00,-SN,,0.00,0.0,WeatherDisplay:10.37,2013-03-04 11:22:00,
2013-03-04 06:27:00,22.1,12.5,29.88,West,270,15.0,15.0,66,0.00,-SN,,0.00,0.0,WeatherDisplay:10.37,2013-03-04 11:27:00,
2013-03-04 06:32:00,21.9,12.6,29.88,WNW,292,13.8,13.8,67,0.00,-SN,,0.00,0.0,WeatherDisplay:10.37,2013-03-04 11:32:00,
2013-03-04 06:37:00,21.9,11.9,29.88,West,270,21.9,21.9,65,0.00,-SN,,0.00,0.0,WeatherDisplay:10.37,2013-03-04 11:37:00,
2013-03-04 06:42:00,21.9,11.9,29.88,West,270,12.7,12.7,65,0.00,-SN,,0.00,0.0,WeatherDisplay:10.37,2013-03-04 11:42:00,
2013-03-04 06:47:00,21.9,11.9,29.88,WNW,292,8.1,8.1,65,0.00,-SN,,0.00,0.0,WeatherDisplay:10.37,2013-03-04 11:47:00,
2013-03-04 06:52:00,22.1,11.1,29.88,WNW,292,11.5,11.5,62,0.00,-SN,,0.00,0.0,WeatherDisplay:10.37,2013-03-04 11:52:00,
2013-03-04 06:57:00,22.1,10.3,29.85,NNW,338,13.8,13.8,60,0.00,-SN,,0.00,0.0,WeatherDisplay:10.37,2013-03-04 11:57:00,
2013-03-04 07:02:00,22.1,10.3,29.85,WNW,292,13.8,13.8,60,0.00,-SN,,0.00,0.0,WeatherDisplay:10.37,2013-03-04 12:02:00,
2013-03-04 07:07:00,21.9,11.2,29.85,WNW,292,13.8,13.8,63,0.00,-SN,,0.00,0.0,WeatherDisplay:10.37,2013-03-04 12:07:00,
2013-03-04 07:12:00,21.9,11.2,29.88,West,270,20.4,20.4,63,0.00,-SN,,0.00,0.0,WeatherDisplay:10.37,2013-03-04 12:12:00,
2013-03-04 07:17:00,21.9,10.1,29.88,West,270,12.7,12.7,60,0.00,-SN,,0.00,0.0,WeatherDisplay:10.37,2013-03-04 12:17:00,
2013-03-04 07:22:00,21.9,9.0,29.88,WNW,292,17.3,17.3,57,0.00,-SN,,0.00,0.0,WeatherDisplay:10.37,2013-03-04 12:22:00,
2013-03-04 07:27:00,22.1,9.2,29.88,WNW,292,15.0,15.0,57,0.00,-SN,,0.00,0.0,WeatherDisplay:10.37,2013-03-04 12:27:00,
2013-03-04 07:32:00,22.1,8.4,29.88,NW,315,15.0,15.0,55,0.00,-SN,,0.00,0.0,WeatherDisplay:10.37,2013-03-04 12:32:00,
2013-03-04 07:37:00,22.1,8.4,29.88,West,270,15.2,15.2,55,0.00,-SN,,0.00,0.0,WeatherDisplay:10.37,2013-03-04 12:37:00,
2013-03-04 07:42:00,22.1,9.2,29.85,WNW,292,19.6,19.6,57,0.00,-SN,,0.00,0.0,WeatherDisplay:10.37,2013-03-04 12:42:00,
2013-03-04 07:47:00,22.1,9.2,29.85,WSW,248,17.6,17.6,57,0.00,-SN,,0.00,0.0,WeatherDisplay:10.37,2013-03-04 12:47:00,
2013-03-04 07:52:00,22.1,9.2,29.85,West,270,20.1,20.1,57,0.00,-SN,,0.00,0.0,WeatherDisplay:10.37,2013-03-04 12:52:00,
2013-03-04 07:57:00,22.1,9.2,29.88,WNW,292,19.6,19.6,57,0.00,-SN,,0.00,0.0,WeatherDisplay:10.37,2013-03-04 12:57:00,
2013-03-04 08:02:00,22.3,8.5,29.88,West,270,18.4,18.4,55,0.00,-SN,,0.00,0.0,WeatherDisplay:10.37,2013-03-04 13:02:00,
2013-03-04 08:07:00,22.5,8.7,29.88,WSW,248,13.7,13.7,55,0.00,-SN,,0.00,0.0,WeatherDisplay:10.37,2013-03-04 13:07:00,
2013-03-04 08:12:00,22.6,8.9,29.88,West,270,19.0,19.0,55,0.00,-SN,,0.00,0.0,WeatherDisplay:10.37,2013-03-04 13:12:00,
2013-03-04 08:17:00,22.6,8.9,29.88,WNW,292,16.1,16.1,55,0.00,-SN,,0.00,0.0,WeatherDisplay:10.37,2013-03-04 13:17:00,
2013-03-04 08:22:00,22.8,9.0,29.88,West,270,16.3,16.3,55,0.00,-SN,,0.00,0.0,WeatherDisplay:10.37,2013-03-04 13:22:00,
2013-03-04 08:27:00,22.8,9.0,29.85,WNW,292,24.2,24.2,55,0.00,-SN,,0.00,0.0,WeatherDisplay:10.37,2013-03-04 13:27:00,
2013-03-04 08:32:00,22.8,9.0,29.85,West,270,19.6,19.6,55,0.00,-SN,,0.00,0.0,WeatherDisplay:10.37,2013-03-04 13:32:00,
2013-03-04 08:37:00,23.0,9.2,29.85,WNW,292,24.2,24.2,55,0.00,-SN,,0.00,0.0,WeatherDisplay:10.37,2013-03-04 13:37:00,
2013-03-04 08:42:00,23.2,9.0,29.88,WNW,292,15.4,15.4,54,0.00,-SN,,0.00,0.0,WeatherDisplay:10.37,2013-03-04 13:42:00,
2013-03-04 08:47:00,23.2,9.0,29.88,WNW,292,27.5,27.5,54,0.00,-SN,,0.00,0.0,WeatherDisplay:10.37,2013-03-04 13:47:00,
2013-03-04 08:52:00,23.2,9.0,29.88,WNW,292,24.2,24.2,54,0.00,-SN,,0.00,0.0,WeatherDisplay:10.37,2013-03-04 13:52:00,
2013-03-04 08:57:00,23.5,9.3,29.85,WNW,292,15.0,15.0,54,0.00,-SN,,0.00,0.0,WeatherDisplay:10.37,2013-03-04 13:57:00,
2013-03-04 09:02:00,23.5,9.3,29.85,WSW,248,21.9,21.9,54,0.00,OVC,,0.00,0.0,WeatherDisplay:10.37,2013-03-04 14:02:00,
2013-03-04 09:07:00,23.7,9.5,29.85,WNW,292,21.9,21.9,54,0.00,OVC,,0.00,0.0,WeatherDisplay:10.37,2013-03-04 14:07:00,
2013-03-04 09:12:00,23.7,9.5,29.88,WSW,248,17.3,17.3,54,0.00,OVC,,0.00,0.0,WeatherDisplay:10.37,2013-03-04 14:12:00,
2013-03-04 09:17:00,24.1,9.8,29.88,WNW,292,15.0,15.0,54,0.00,OVC,,0.00,0.0,WeatherDisplay:10.37,2013-03-04 14:17:00,
2013-03-04 09:22:00,24.3,10.0,29.88,West,270,17.8,17.8,54,0.00,OVC,,0.00,0.0,WeatherDisplay:10.37,2013-03-04 14:22:00,
2013-03-04 09:27:00,24.1,9.8,29.85,WNW,292,17.3,17.3,54,0.00,OVC,,0.00,0.0,WeatherDisplay:10.37,2013-03-04 14:27:00,
2013-03-04 09:32:00,24.3,10.0,29.85,WNW,292,15.0,15.0,54,0.00,OVC,,0.00,0.0,WeatherDisplay:10.37,2013-03-04 14:32:00,
2013-03-04 09:37:00,24.1,9.8,29.85,WNW,292,15.2,15.2,54,0.00,OVC,,0.00,0.0,WeatherDisplay:10.37,2013-03-04 14:37:00,
2013-03-04 09:42:00,24.4,10.2,29.88,WSW,248,15.0,15.0,54,0.00,OVC,,0.00,0.0,WeatherDisplay:10.37,2013-03-04 14:42:00,
2013-03-04 09:47:00,24.1,9.8,29.88,West,270,25.5,25.5,54,0.00,OVC,,0.00,0.0,WeatherDisplay:10.37,2013-03-04 14:47:00,
2013-03-04 09:52:00,24.3,10.0,29.88,WNW,292,19.6,19.6,54,0.00,OVC,,0.00,0.0,WeatherDisplay:10.37,2013-03-04 14:52:00,
2013-03-04 09:57:00,24.6,10.3,29.88,WNW,292,12.7,12.7,54,0.00,OVC,,0.00,0.0,WeatherDisplay:10.37,2013-03-04 14:57:00,
2013-03-04 10:02:00,24.4,10.2,29.88,West,270,21.9,21.9,54,0.00,OVC,,0.00,0.0,WeatherDisplay:10.37,2013-03-04 15:02:00,
2013-03-04 10:07:00,24.6,10.3,29.88,West,270,21.9,21.9,54,0.00,OVC,,0.00,0.0,WeatherDisplay:10.37,2013-03-04 15:07:00,
2013-03-04 10:12:00,24.6,10.3,29.88,NW,315,19.0,19.0,54,0.00,OVC,,0.00,0.0,WeatherDisplay:10.37,2013-03-04 15:12:00,
2013-03-04 10:17:00,25.0,10.7,29.88,West,270,23.0,23.0,54,0.00,OVC,,0.00,0.0,WeatherDisplay:10.37,2013-03-04 15:17:00,
2013-03-04 10:22:00,25.0,10.7,29.88,WNW,292,17.3,17.3,54,0.00,OVC,,0.00,0.0,WeatherDisplay:10.37,2013-03-04 15:22:00,
2013-03-04 10:27:00,25.0,10.7,29.88,WNW,292,24.2,24.2,54,0.00,OVC,,0.00,0.0,WeatherDisplay:10.37,2013-03-04 15:27:00,
2013-03-04 10:32:00,25.3,11.0,29.88,WNW,292,12.7,12.7,54,0.00,OVC,,0.00,0.0,WeatherDisplay:10.37,2013-03-04 15:32:00,
2013-03-04 10:37:00,25.5,11.2,29.88,WNW,292,15.0,15.0,54,0.00,OVC,,0.00,0.0,WeatherDisplay:10.37,2013-03-04 15:37:00,
2013-03-04 10:42:00,25.5,11.2,29.88,WNW,292,15.2,15.2,54,0.00,OVC,,0.00,0.0,WeatherDisplay:10.37,2013-03-04 15:42:00,
2013-03-04 10:47:00,25.5,11.2,29.88,WNW,292,16.1,16.1,54,0.00,OVC,,0.00,0.0,WeatherDisplay:10.37,2013-03-04 15:47:00,
2013-03-04 10:52:00,25.5,11.2,29.88,WNW,292,17.3,17.3,54,0.00,OVC,,0.00,0.0,WeatherDisplay:10.37,2013-03-04 15:52:00,
2013-03-04 10:57:00,25.9,11.5,29.88,WSW,248,15.4,15.4,54,0.00,OVC,,0.00,0.0,WeatherDisplay:10.37,2013-03-04 15:57:00,
2013-03-04 11:02:00,25.7,11.3,29.88,West,270,20.1,20.1,54,0.00,OVC,,0.00,0.0,WeatherDisplay:10.37,2013-03-04 16:02:00,
2013-03-04 11:07:00,25.9,11.5,29.88,WNW,292,15.0,15.0,54,0.00,OVC,,0.00,0.0,WeatherDisplay:10.37,2013-03-04 16:07:00,
2013-03-04 11:12:00,26.1,11.7,29.88,WNW,292,18.4,18.4,54,0.00,OVC,,0.00,0.0,WeatherDisplay:10.37,2013-03-04 16:12:00,
2013-03-04 11:17:00,25.7,11.3,29.88,WSW,248,17.3,17.3,54,0.00,OVC,,0.00,0.0,WeatherDisplay:10.37,2013-03-04 16:17:00,
2013-03-04 11:22:00,26.2,11.8,29.88,West,270,16.1,16.1,54,0.00,OVC,,0.00,0.0,WeatherDisplay:10.37,2013-03-04 16:22:00,
2013-03-04 11:27:00,26.6,12.2,29.88,West,270,15.6,15.6,54,0.00,OVC,,0.00,0.0,WeatherDisplay:10.37,2013-03-04 16:27:00,
2013-03-04 11:32:00,26.2,11.8,29.88,West,270,17.3,17.3,54,0.00,OVC,,0.00,0.0,WeatherDisplay:10.37,2013-03-04 16:32:00,
2013-03-04 11:37:00,26.4,12.0,29.88,West,270,13.2,13.2,54,0.00,OVC,,0.00,0.0,WeatherDisplay:10.37,2013-03-04 16:37:00,
2013-03-04 11:42:00,26.2,11.8,29.88,West,270,13.2,13.2,54,0.00,OVC,,0.00,0.0,WeatherDisplay:10.37,2013-03-04 16:42:00,
2013-03-04 11:47:00,25.5,11.2,29.88,West,270,19.6,19.6,54,0.00,OVC,,0.00,0.0,WeatherDisplay:10.37,2013-03-04 16:47:00,
2013-03-04 11:52:00,25.7,11.3,29.88,West,270,19.6,19.6,54,0.00,OVC,,0.00,0.0,WeatherDisplay:10.37,2013-03-04 16:52:00,
2013-03-04 11:57:00,26.1,11.7,29.88,WNW,292,15.0,15.0,54,0.00,OVC,,0.00,0.0,WeatherDisplay:10.37,2013-03-04 16:57:00,
2013-03-04 12:02:00,26.2,11.8,29.88,WNW,292,15.4,15.4,54,0.00,-SN,,0.00,0.0,WeatherDisplay:10.37,2013-03-04 17:02:00,
2013-03-04 12:07:00,26.4,12.0,29.88,WNW,292,23.0,23.0,54,0.00,-SN,,0.00,0.0,WeatherDisplay:10.37,2013-03-04 17:07:00,
2013-03-04 12:12:00,26.6,12.2,29.88,WNW,292,17.5,17.5,54,0.00,-SN,,0.00,0.0,WeatherDisplay:10.37,2013-03-04 17:12:00,
2013-03-04 12:17:00,27.0,12.1,29.88,WNW,292,12.7,12.7,53,0.00,-SN,,0.00,0.0,WeatherDisplay:10.37,2013-03-04 17:17:00,
2013-03-04 12:22:00,27.0,12.1,29.88,WNW,292,18.4,18.4,53,0.00,-SN,,0.00,0.0,WeatherDisplay:10.37,2013-03-04 17:22:00,
2013-03-04 12:27:00,27.3,12.4,29.85,WNW,292,15.0,15.0,53,0.00,-SN,,0.00,0.0,WeatherDisplay:10.37,2013-03-04 17:27:00,
2013-03-04 12:32:00,27.1,12.3,29.85,West,270,22.5,22.5,53,0.00,-SN,,0.00,0.0,WeatherDisplay:10.37,2013-03-04 17:32:00,
2013-03-04 12:37:00,27.0,12.1,29.85,West,270,18.5,18.5,53,0.00,-SN,,0.00,0.0,WeatherDisplay:10.37,2013-03-04 17:37:00,
2013-03-04 12:42:00,27.0,12.1,29.88,West,270,23.0,23.0,53,0.00,-SN,,0.00,0.0,WeatherDisplay:10.37,2013-03-04 17:42:00,
2013-03-04 12:47:00,27.0,12.1,29.88,WNW,292,18.4,18.4,53,0.00,-SN,,0.00,0.0,WeatherDisplay:10.37,2013-03-04 17:47:00,
2013-03-04 12:52:00,27.0,12.1,29.88,WNW,292,23.0,23.0,53,0.00,-SN,,0.00,0.0,WeatherDisplay:10.37,2013-03-04 17:52:00,
2013-03-04 12:57:00,27.9,12.9,29.88,West,270,15.4,15.4,53,0.00,-SN,,0.00,0.0,WeatherDisplay:10.37,2013-03-04 17:57:00,
2013-03-04 13:02:00,27.3,12.4,29.88,West,270,19.6,19.6,53,0.00,OVC,,0.00,0.0,WeatherDisplay:10.37,2013-03-04 18:02:00,
2013-03-04 13:07:00,27.5,12.6,29.88,WNW,292,21.9,21.9,53,0.00,OVC,,0.00,0.0,WeatherDisplay:10.37,2013-03-04 18:07:00,
2013-03-04 13:12:00,27.3,12.4,29.85,WNW,292,25.3,25.3,53,0.00,OVC,,0.00,0.0,WeatherDisplay:10.37,2013-03-04 18:12:00,
2013-03-04 13:17:00,27.9,12.9,29.85,West,270,17.0,17.0,53,0.00,OVC,,0.00,0.0,WeatherDisplay:10.37,2013-03-04 18:17:00,
2013-03-04 13:22:00,27.9,12.9,29.85,WSW,248,20.7,20.7,53,0.00,OVC,,0.00,0.0,WeatherDisplay:10.37,2013-03-04 18:22:00,
2013-03-04 13:27:00,28.0,13.1,29.88,West,270,21.9,21.9,53,0.00,OVC,,0.00,0.0,WeatherDisplay:10.37,2013-03-04 18:27:00,
2013-03-04 13:30:00,28.1,13.1,29.88,West,274,16.0,22.0,53,0.00,OVC,,0.00,2.7,WeatherDisplay:10.37,2013-03-04 18:30:00,
2013-03-04 13:35:00,28.4,13.4,29.88,WNW,292,19.6,19.6,53,0.00,OVC,,0.00,0.0,WeatherDisplay:10.37,2013-03-04 18:35:00,
2013-03-04 13:40:00,28.6,13.6,29.88,WNW,292,15.2,15.2,53,0.00,OVC,,0.00,0.0,WeatherDisplay:10.37,2013-03-04 18:40:00,
2013-03-04 13:45:00,28.2,13.3,29.88,WNW,292,17.3,17.3,53,0.00,OVC,,0.00,0.0,WeatherDisplay:10.37,2013-03-04 18:45:00,
2013-03-04 13:50:00,28.6,13.6,29.88,WNW,292,15.2,15.2,53,0.00,OVC,,0.00,0.0,WeatherDisplay:10.37,2013-03-04 18:50:00,
2013-03-04 13:55:00,28.4,13.4,29.88,WNW,292,16.8,16.8,53,0.00,OVC,,0.00,0.0,WeatherDisplay:10.37,2013-03-04 18:55:00,
2013-03-04 14:00:00,28.2,13.3,29.88,WSW,248,21.9,21.9,53,0.00,OVC,,0.00,0.0,WeatherDisplay:10.37,2013-03-04 19:00:00,
2013-03-04 14:05:00,28.4,13.4,29.88,WSW,248,20.7,20.7,53,0.00,OVC,,0.00,0.0,WeatherDisplay:10.37,2013-03-04 19:05:00,
2013-03-04 14:10:00,28.9,13.9,29.88,WNW,292,16.1,16.1,53,0.00,OVC,,0.00,0.0,WeatherDisplay:10.37,2013-03-04 19:10:00,
2013-03-04 14:15:00,28.9,13.9,29.88,WNW,292,17.3,17.3,53,0.00,OVC,,0.00,0.0,WeatherDisplay:10.37,2013-03-04 19:15:00,
2013-03-04 14:20:00,29.5,14.4,29.88,West,270,12.7,12.7,53,0.00,OVC,,0.00,0.0,WeatherDisplay:10.37,2013-03-04 19:20:00,
2013-03-04 14:25:00,29.3,14.3,29.88,WSW,248,23.0,23.0,53,0.00,OVC,,0.00,0.0,WeatherDisplay:10.37,2013-03-04 19:25:00,
2013-03-04 14:30:00,30.2,15.1,29.88,WNW,292,13.8,13.8,53,0.00,OVC,,0.00,0.0,WeatherDisplay:10.37,2013-03-04 19:30:00,
2013-03-04 14:35:00,29.8,14.8,29.88,WNW,292,20.7,20.7,53,0.00,OVC,,0.00,0.0,WeatherDisplay:10.37,2013-03-04 19:35:00,
2013-03-04 14:40:00,30.6,15.4,29.88,West,270,17.3,17.3,53,0.00,OVC,,0.00,0.0,WeatherDisplay:10.37,2013-03-04 19:40:00,
2013-03-04 14:45:00,30.2,15.1,29.88,West,270,21.9,21.9,53,0.00,OVC,,0.00,0.0,WeatherDisplay:10.37,2013-03-04 19:45:00,
2013-03-04 14:50:00,29.7,14.6,29.88,West,270,19.6,19.6,53,0.00,OVC,,0.00,0.0,WeatherDisplay:10.37,2013-03-04 19:50:00,
2013-03-04 14:55:00,29.7,14.6,29.88,WNW,292,20.7,20.7,53,0.00,OVC,,0.00,0.0,WeatherDisplay:10.37,2013-03-04 19:55:00,
2013-03-04 15:00:00,29.8,14.8,29.88,WNW,292,17.3,17.3,53,0.00,OVC,,0.00,0.0,WeatherDisplay:10.37,2013-03-04 20:00:00,
2013-03-04 15:05:00,30.0,14.9,29.88,WNW,292,15.0,15.0,53,0.00,OVC,,0.00,0.0,WeatherDisplay:10.37,2013-03-04 20:05:00,
2013-03-04 15:10:00,30.0,14.9,29.88,WNW,292,20.7,20.7,53,0.00,OVC,,0.00,0.0,WeatherDisplay:10.37,2013-03-04 20:10:00,
2013-03-04 15:15:00,29.5,14.4,29.88,WNW,292,22.3,22.3,53,0.00,OVC,,0.00,0.0,WeatherDisplay:10.37,2013-03-04 20:15:00,
2013-03-04 15:20:00,29.5,14.4,29.88,WNW,292,17.0,17.0,53,0.00,OVC,,0.00,0.0,WeatherDisplay:10.37,2013-03-04 20:20:00,
2013-03-04 15:25:00,29.8,14.8,29.85,West,270,15.0,15.0,53,0.00,OVC,,0.00,0.0,WeatherDisplay:10.37,2013-03-04 20:25:00,
2013-03-04 15:30:00,29.1,14.1,29.85,WNW,292,25.3,25.3,53,0.00,OVC,,0.00,0.0,WeatherDisplay:10.37,2013-03-04 20:30:00,
2013-03-04 15:35:00,29.3,14.3,29.85,West,270,19.6,19.6,53,0.00,OVC,,0.00,0.0,WeatherDisplay:10.37,2013-03-04 20:35:00,
2013-03-04 15:40:00,29.5,14.4,29.85,WNW,292,18.4,18.4,53,0.00,OVC,,0.00,0.0,WeatherDisplay:10.37,2013-03-04 20:40:00,
2013-03-04 15:45:00,29.7,14.6,29.85,WNW,292,15.0,15.0,53,0.00,OVC,,0.00,0.0,WeatherDisplay:10.37,2013-03-04 20:45:00,
2013-03-04 15:50:00,29.5,14.4,29.85,WNW,292,19.6,19.6,53,0.00,OVC,,0.00,0.0,WeatherDisplay:10.37,2013-03-04 20:50:00,
2013-03-04 15:55:00,29.5,14.4,29.88,WNW,292,17.3,17.3,53,0.00,OVC,,0.00,0.0,WeatherDisplay:10.37,2013-03-04 20:55:00,
2013-03-04 16:00:00,29.8,14.8,29.88,WNW,292,17.3,17.3,53,0.00,OVC,,0.00,0.0,WeatherDisplay:10.37,2013-03-04 21:00:00,
2013-03-04 16:05:00,30.0,14.9,29.88,West,270,15.0,15.0,53,0.00,OVC,,0.00,0.0,WeatherDisplay:10.37,2013-03-04 21:05:00,
2013-03-04 16:10:00,29.8,14.8,29.88,WSW,248,21.9,21.9,53,0.00,OVC,,0.00,0.0,WeatherDisplay:10.37,2013-03-04 21:10:00,
2013-03-04 16:15:00,29.7,14.6,29.88,West,270,18.4,18.4,53,0.00,OVC,,0.00,0.0,WeatherDisplay:10.37,2013-03-04 21:15:00,
2013-03-04 16:20:00,29.7,14.6,29.88,WNW,292,23.0,23.0,53,0.00,OVC,,0.00,0.0,WeatherDisplay:10.37,2013-03-04 21:20:00,
2013-03-04 16:25:00,29.7,14.6,29.88,WNW,292,23.0,23.0,53,0.00,OVC,,0.00,0.0,WeatherDisplay:10.37,2013-03-04 21:25:00,
2013-03-04 16:30:00,30.0,14.9,29.88,West,270,15.0,15.0,53,0.00,OVC,,0.00,0.0,WeatherDisplay:10.37,2013-03-04 21:30:00,
2013-03-04 16:35:00,30.0,14.9,29.88,West,270,18.7,18.7,53,0.00,OVC,,0.00,0.0,WeatherDisplay:10.37,2013-03-04 21:35:00,
2013-03-04 16:40:00,29.5,14.4,29.88,West,270,17.3,17.3,53,0.00,OVC,,0.00,0.0,WeatherDisplay:10.37,2013-03-04 21:40:00,
2013-03-04 16:45:00,29.5,14.4,29.88,WNW,292,17.6,17.6,53,0.00,OVC,,0.00,0.0,WeatherDisplay:10.37,2013-03-04 21:45:00,
2013-03-04 16:50:00,29.5,14.4,29.88,West,270,15.0,15.0,53,0.00,OVC,,0.00,0.0,WeatherDisplay:10.37,2013-03-04 21:50:00,
2013-03-04 16:55:00,29.3,14.3,29.88,WNW,292,15.0,15.0,53,0.00,OVC,,0.00,0.0,WeatherDisplay:10.37,2013-03-04 21:55:00,
2013-03-04 17:00:00,29.1,14.1,29.88,West,270,18.5,18.5,53,0.00,OVC,,0.00,0.0,WeatherDisplay:10.37,2013-03-04 22:00:00,
2013-03-04 17:05:00,29.1,14.1,29.88,West,270,13.2,13.2,53,0.00,OVC,,0.00,0.0,WeatherDisplay:10.37,2013-03-04 22:05:00,
2013-03-04 17:10:00,29.1,14.1,29.88,WNW,292,17.3,17.3,53,0.00,OVC,,0.00,0.0,WeatherDisplay:10.37,2013-03-04 22:10:00,
2013-03-04 17:15:00,29.1,14.1,29.88,WNW,292,13.8,13.8,53,0.00,OVC,,0.00,0.0,WeatherDisplay:10.37,2013-03-04 22:15:00,
2013-03-04 17:20:00,28.9,13.9,29.88,WNW,292,23.5,23.5,53,0.00,OVC,,0.00,0.0,WeatherDisplay:10.37,2013-03-04 22:20:00,
2013-03-04 17:25:00,28.9,13.9,29.91,WNW,292,20.7,20.7,53,0.00,OVC,,0.00,0.0,WeatherDisplay:10.37,2013-03-04 22:25:00,
2013-03-04 17:30:00,28.9,13.9,29.91,West,270,13.8,13.8,53,0.00,OVC,,0.00,0.0,WeatherDisplay:10.37,2013-03-04 22:30:00,
2013-03-04 17:35:00,28.9,13.9,29.91,WNW,292,17.3,17.3,53,0.00,OVC,,0.00,0.0,WeatherDisplay:10.37,2013-03-04 22:35:00,
2013-03-04 17:40:00,28.8,13.8,29.88,WNW,292,16.1,16.1,53,0.00,OVC,,0.00,0.0,WeatherDisplay:10.37,2013-03-04 22:40:00,
2013-03-04 17:45:00,28.9,13.9,29.88,NW,315,13.0,13.0,53,0.00,OVC,,0.00,0.0,WeatherDisplay:10.37,2013-03-04 22:45:00,
2013-03-04 17:50:00,28.9,13.9,29.88,WNW,292,16.6,16.6,53,0.00,OVC,,0.00,0.0,WeatherDisplay:10.37,2013-03-04 22:50:00,
2013-03-04 17:56:00,28.9,13.9,29.91,WNW,292,10.4,10.4,53,0.00,OVC,,0.00,0.0,WeatherDisplay:10.37,2013-03-04 22:56:00,
2013-03-04 18:01:00,28.9,13.9,29.91,WNW,292,13.8,13.8,53,0.00,OVC,,0.00,0.0,WeatherDisplay:10.37,2013-03-04 23:01:00,
2013-03-04 18:06:00,28.9,13.9,29.91,West,270,17.3,17.3,53,0.00,OVC,,0.00,0.0,WeatherDisplay:10.37,2013-03-04 23:06:00,
2013-03-04 18:11:00,28.9,13.9,29.91,WNW,292,11.5,11.5,53,0.00,OVC,,0.00,0.0,WeatherDisplay:10.37,2013-03-04 23:11:00,
2013-03-04 18:16:00,29.1,14.1,29.91,West,270,16.1,16.1,53,0.00,OVC,,0.00,0.0,WeatherDisplay:10.37,2013-03-04 23:16:00,
2013-03-04 18:21:00,29.1,14.1,29.91,West,270,12.3,12.3,53,0.00,OVC,,0.00,0.0,WeatherDisplay:10.37,2013-03-04 23:21:00,
2013-03-04 18:26:00,29.1,14.1,29.91,WNW,292,15.6,15.6,53,0.00,OVC,,0.00,0.0,WeatherDisplay:10.37,2013-03-04 23:26:00,
2013-03-04 18:31:00,29.1,14.1,29.91,West,270,15.0,15.0,53,0.00,OVC,,0.00,0.0,WeatherDisplay:10.37,2013-03-04 23:31:00,
2013-03-04 18:36:00,29.1,14.1,29.91,West,270,20.7,20.7,53,0.00,OVC,,0.00,0.0,WeatherDisplay:10.37,2013-03-04 23:36:00,
2013-03-04 18:41:00,29.3,14.3,29.91,WNW,292,13.8,13.8,53,0.00,OVC,,0.00,0.0,WeatherDisplay:10.37,2013-03-04 23:41:00,
2013-03-04 18:46:00,29.3,14.3,29.91,West,270,11.5,11.5,53,0.00,OVC,,0.00,0.0,WeatherDisplay:10.37,2013-03-04 23:46:00,
2013-03-04 18:51:00,29.3,14.3,29.91,WNW,292,17.3,17.3,53,0.00,OVC,,0.00,0.0,WeatherDisplay:10.37,2013-03-04 23:51:00,
2013-03-04 18:56:00,29.3,14.3,29.94,West,270,12.8,12.8,53,0.00,OVC,,0.00,0.0,WeatherDisplay:10.37,2013-03-04 23:56:00,
2013-03-04 19:01:00,29.3,14.3,29.94,West,270,9.2,9.2,53,0.00,OVC,,0.00,0.0,WeatherDisplay:10.37,2013-03-05 00:01:00,
2013-03-04 19:06:00,29.3,14.3,29.94,WNW,292,13.8,13.8,53,0.00,OVC,,0.00,0.0,WeatherDisplay:10.37,2013-03-05 00:06:00,
2013-03-04 19:11:00,29.5,14.4,29.94,WNW,292,15.2,15.2,53,0.00,OVC,,0.00,0.0,WeatherDisplay:10.37,2013-03-05 00:11:00,
2013-03-04 19:16:00,29.5,14.4,29.94,WNW,292,11.5,11.5,53,0.00,OVC,,0.00,0.0,WeatherDisplay:10.37,2013-03-05 00:16:00,
2013-03-04 19:21:00,29.3,14.3,29.94,WNW,292,10.4,10.4,53,0.00,OVC,,0.00,0.0,WeatherDisplay:10.37,2013-03-05 00:21:00,
2013-03-04 19:26:00,29.5,14.4,29.94,WNW,292,13.8,13.8,53,0.00,OVC,,0.00,0.0,WeatherDisplay:10.37,2013-03-05 00:26:00,
2013-03-04 19:31:00,29.5,14.4,29.94,West,270,11.5,11.5,53,0.00,OVC,,0.00,0.0,WeatherDisplay:10.37,2013-03-05 00:31:00,
2013-03-04 19:36:00,29.5,14.4,29.94,WNW,292,17.3,17.3,53,0.00,OVC,,0.00,0.0,WeatherDisplay:10.37,2013-03-05 00:36:00,
2013-03-04 19:41:00,29.5,14.4,29.94,WNW,292,15.0,15.0,53,0.00,OVC,,0.00,0.0,WeatherDisplay:10.37,2013-03-05 00:41:00,
2013-03-04 19:46:00,29.3,14.3,29.94,West,270,9.7,9.7,53,0.00,OVC,,0.00,0.0,WeatherDisplay:10.37,2013-03-05 00:46:00,
2013-03-04 19:51:00,29.3,14.3,29.94,WNW,292,13.8,13.8,53,0.00,OVC,,0.00,0.0,WeatherDisplay:10.37,2013-03-05 00:51:00,
2013-03-04 19:56:00,29.3,14.3,29.94,NW,315,17.3,17.3,53,0.00,OVC,,0.00,0.0,WeatherDisplay:10.37,2013-03-05 00:56:00,
2013-03-04 20:01:00,29.3,14.3,29.94,WNW,292,5.8,5.8,53,0.00,OVC,,0.00,0.0,WeatherDisplay:10.37,2013-03-05 01:01:00,
2013-03-04 20:06:00,29.3,14.3,29.94,WNW,292,8.1,8.1,53,0.00,OVC,,0.00,0.0,WeatherDisplay:10.37,2013-03-05 01:06:00,
2013-03-04 20:11:00,29.3,14.3,29.94,WNW,292,9.2,9.2,53,0.00,OVC,,0.00,0.0,WeatherDisplay:10.37,2013-03-05 01:11:00,
2013-03-04 20:16:00,29.3,14.3,29.94,NW,315,11.5,11.5,53,0.00,OVC,,0.00,0.0,WeatherDisplay:10.37,2013-03-05 01:16:00,
2013-03-04 20:21:00,29.3,14.3,29.94,WNW,292,11.5,11.5,53,0.00,OVC,,0.00,0.0,WeatherDisplay:10.37,2013-03-05 01:21:00,
2013-03-04 20:26:00,29.1,14.1,29.91,NW,315,20.7,20.7,53,0.00,OVC,,0.00,0.0,WeatherDisplay:10.37,2013-03-05 01:26:00,
2013-03-04 20:31:00,29.1,14.1,29.91,WNW,292,13.8,13.8,53,0.00,OVC,,0.00,0.0,WeatherDisplay:10.37,2013-03-05 01:31:00,
2013-03-04 20:36:00,28.9,13.9,29.91,WNW,292,10.9,10.9,53,0.00,OVC,,0.00,0.0,WeatherDisplay:10.37,2013-03-05 01:36:00,
2013-03-04 20:41:00,28.9,13.9,29.94,WNW,292,8.1,8.1,53,0.00,OVC,,0.00,0.0,WeatherDisplay:10.37,2013-03-05 01:41:00,
2013-03-04 20:46:00,28.8,13.8,29.94,WNW,292,8.1,8.1,53,0.00,OVC,,0.00,0.0,WeatherDisplay:10.37,2013-03-05 01:46:00,
2013-03-04 20:51:00,28.8,13.8,29.94,West,270,10.4,10.4,53,0.00,OVC,,0.00,0.0,WeatherDisplay:10.37,2013-03-05 01:51:00,
2013-03-04 20:56:00,28.6,13.6,29.94,WNW,292,13.8,13.8,53,0.00,OVC,,0.00,0.0,WeatherDisplay:10.37,2013-03-05 01:56:00,
2013-03-04 21:01:00,28.6,13.6,29.94,WNW,292,10.4,10.4,53,0.00,OVC,,0.00,0.0,WeatherDisplay:10.37,2013-03-05 02:01:00,
2013-03-04 21:06:00,28.4,13.4,29.94,WNW,292,12.7,12.7,53,0.00,OVC,,0.00,0.0,WeatherDisplay:10.37,2013-03-05 02:06:00,
2013-03-04 21:11:00,28.2,13.3,29.94,WNW,292,10.4,10.4,53,0.00,OVC,,0.00,0.0,WeatherDisplay:10.37,2013-03-05 02:11:00,
2013-03-04 21:16:00,28.2,13.3,29.94,WNW,292,12.7,12.7,53,0.00,OVC,,0.00,0.0,WeatherDisplay:10.37,2013-03-05 02:16:00,
2013-03-04 21:21:00,28.0,13.1,29.94,WNW,292,11.5,11.5,53,0.00,OVC,,0.00,0.0,WeatherDisplay:10.37,2013-03-05 02:21:00,
2013-03-04 21:26:00,28.0,13.1,29.94,NW,315,15.0,15.0,53,0.00,OVC,,0.00,0.0,WeatherDisplay:10.37,2013-03-05 02:26:00,
2013-03-04 21:31:00,27.9,12.9,29.94,NW,315,15.4,15.4,53,0.00,OVC,,0.00,0.0,WeatherDisplay:10.37,2013-03-05 02:31:00,
2013-03-04 21:36:00,27.9,12.9,29.94,WNW,292,12.7,12.7,53,0.00,OVC,,0.00,0.0,WeatherDisplay:10.37,2013-03-05 02:36:00,
2013-03-04 21:41:00,27.7,12.8,29.97,West,270,17.3,17.3,53,0.00,OVC,,0.00,0.0,WeatherDisplay:10.37,2013-03-05 02:41:00,
2013-03-04 21:46:00,27.7,12.8,29.97,NNW,338,13.8,13.8,53,0.00,OVC,,0.00,0.0,WeatherDisplay:10.37,2013-03-05 02:46:00,
2013-03-04 21:51:00,27.7,12.8,29.97,WNW,292,11.5,11.5,53,0.00,OVC,,0.00,0.0,WeatherDisplay:10.37,2013-03-05 02:51:00,
2013-03-04 21:56:00,27.5,12.6,29.94,WNW,292,15.0,15.0,53,0.00,OVC,,0.00,0.0,WeatherDisplay:10.37,2013-03-05 02:56:00,
2013-03-04 22:01:00,27.5,12.6,29.94,NW,315,12.7,12.7,53,0.00,BKN,,0.00,0.0,WeatherDisplay:10.37,2013-03-05 03:01:00,
2013-03-04 22:06:00,27.5,12.6,29.94,WNW,292,11.5,11.5,53,0.00,BKN,,0.00,0.0,WeatherDisplay:10.37,2013-03-05 03:06:00,
2013-03-04 22:11:00,27.5,12.6,29.97,WNW,292,10.7,10.7,53,0.00,BKN,,0.00,0.0,WeatherDisplay:10.37,2013-03-05 03:11:00,
2013-03-04 22:16:00,27.5,12.6,29.97,WNW,292,15.0,15.0,53,0.00,BKN,,0.00,0.0,WeatherDisplay:10.37,2013-03-05 03:16:00,
2013-03-04 22:21:00,27.5,12.6,29.97,WNW,292,12.5,12.5,53,0.00,BKN,,0.00,0.0,WeatherDisplay:10.37,2013-03-05 03:21:00,
2013-03-04 22:26:00,27.3,12.4,29.97,West,270,12.7,12.7,53,0.00,BKN,,0.00,0.0,WeatherDisplay:10.37,2013-03-05 03:26:00,
2013-03-04 22:31:00,27.3,12.4,29.97,WNW,292,10.4,10.4,53,0.00,BKN,,0.00,0.0,WeatherDisplay:10.37,2013-03-05 03:31:00,
2013-03-04 22:36:00,27.3,12.4,29.97,West,270,12.7,12.7,53,0.00,BKN,,0.00,0.0,WeatherDisplay:10.37,2013-03-05 03:36:00,
2013-03-04 22:41:00,27.3,12.4,29.97,West,270,9.8,9.8,53,0.00,BKN,,0.00,0.0,WeatherDisplay:10.37,2013-03-05 03:41:00,
2013-03-04 22:46:00,27.1,12.3,29.97,NNW,338,17.3,17.3,53,0.00,BKN,,0.00,0.0,WeatherDisplay:10.37,2013-03-05 03:46:00,
2013-03-04 22:51:00,27.1,12.3,29.97,WNW,292,15.0,15.0,53,0.00,BKN,,0.00,0.0,WeatherDisplay:10.37,2013-03-05 03:51:00,
2013-03-04 22:56:00,27.1,12.3,29.97,WNW,292,15.0,15.0,53,0.00,BKN,,0.00,0.0,WeatherDisplay:10.37,2013-03-05 03:56:00,
2013-03-04 23:01:00,27.0,12.1,29.97,West,270,10.4,10.4,53,0.00,BKN,,0.00,0.0,WeatherDisplay:10.37,2013-03-05 04:01:00,
2013-03-04 23:06:00,27.0,12.1,29.97,NNW,338,10.5,10.7,53,0.00,BKN,,0.00,0.0,WeatherDisplay:10.37,2013-03-05 04:06:00,
2013-03-04 23:11:00,27.0,12.1,29.97,WNW,292,10.4,10.4,53,0.00,BKN,,0.00,0.0,WeatherDisplay:10.37,2013-03-05 04:11:00,
2013-03-04 23:17:00,27.0,12.1,29.97,NW,315,12.7,12.7,53,0.00,BKN,,0.00,0.0,WeatherDisplay:10.37,2013-03-05 04:17:00,
2013-03-04 23:22:00,27.0,12.1,29.97,WNW,292,11.5,11.5,53,0.00,BKN,,0.00,0.0,WeatherDisplay:10.37,2013-03-05 04:22:00,
2013-03-04 23:27:00,27.0,12.1,29.97,WNW,292,5.8,5.8,53,0.00,BKN,,0.00,0.0,WeatherDisplay:10.37,2013-03-05 04:27:00,
2013-03-04 23:32:00,27.0,12.1,29.97,West,270,12.7,12.7,53,0.00,BKN,,0.00,0.0,WeatherDisplay:10.37,2013-03-05 04:32:00,
2013-03-04 23:37:00,26.8,11.9,29.97,WNW,292,12.7,12.7,53,0.00,BKN,,0.00,0.0,WeatherDisplay:10.37,2013-03-05 04:37:00,
2013-03-04 23:42:00,26.8,11.9,29.97,WNW,292,12.8,12.8,53,0.00,BKN,,0.00,0.0,WeatherDisplay:10.37,2013-03-05 04:42:00,
2013-03-04 23:47:00,26.8,11.9,29.97,WNW,292,12.7,12.7,53,0.00,BKN,,0.00,0.0,WeatherDisplay:10.37,2013-03-05 04:47:00,
2013-03-04 23:52:00,26.8,11.9,29.97,NW,315,13.2,13.2,53,0.00,BKN,,0.00,0.0,WeatherDisplay:10.37,2013-03-05 04:52:00,
2013-03-04 23:57:00,26.6,12.2,29.97,WSW,248,12.7,12.7,54,0.00,BKN,,0.00,0.0,WeatherDisplay:10.37,2013-03-05 04:57:00,